Location: Namasale
(1.5000°N, 32.6167°E)
Time: 13:39:50
(UTC+00:00)

Cosmos 1140 Rocket - Pass Details

Date: 09 April 2020
Orbit: 745 x 767 km, 74.1° (Epoch: 04 June)

Event Time Altitude Azimuth Distance (km) Brightness Sun altitude
Rises 16:30:39 0° 188° (S) 3,228 6.7 -9.6°
Reaches altitude 10° 16:33:02 10° 186° (S) 2,298 6.0 -10.2°
Maximum altitude 16:38:14 72° 102° (ESE) 801 3.4 -11.5°
Drops below altitude 10° 16:43:23 10° 18° (NNE) 2,277 5.9 -12.8°
Sets 16:45:44 0° 16° (NNE) 3,196 6.6 -13.3°
